This demonstration page uses our WeatherBlox Daily Observations layout. Learn more.

36.17497, -115.13722

Hourly Observations for June 25, 2020

Temp ( °F °C ) Dew Point ( °F °C ) Humidity (%) Winds ( mph kmh ) Pressure ( in mb ) Visibility ( mi km ) Precip ( " mm )
12:53 am 00:53 Clear 93 33.9 30 -1.1 10 10 SSW 7 11 29.76 1008 10 16.0934 0 0
1:53 am 01:53 Clear 91 32.8 32 0 12 12 Calm 29.77 1008 10 16.0934 0 0
2:53 am 02:53 Clear 86 30 33 0.6 15 15 WSW 5 7 29.77 1008 10 16.0934 0 0
3:53 am 03:53 Clear 83 28.3 34 1.1 17 17 NNW 5 7 29.77 1008 10 16.0934 0 0
4:53 am 04:53 Clear 82 27.8 34 1.1 18 18 NNW 6 9 29.77 1008 10 16.0934 0 0
5:53 am 05:53 Sunny 81 27.2 35 1.7 19 19 NNW 3 6 29.78 1008 10 16.0934 0 0
6:53 am 06:53 Sunny 84 28.9 37 2.8 19 19 Calm 29.78 1008 10 16.0934 0 0
7:53 am 07:53 Sunny 90 32.2 38 3.3 16 16 Calm 29.77 1008 10 16.0934 0 0
8:53 am 08:53 Sunny 93 33.9 39 3.9 15 15 E 8 13 29.78 1008 10 16.0934 0 0
9:53 am 09:53 Sunny 96 35.6 40 4.4 14 14 ESE 6 9 N/A 10 16.0934 0 0
10:53 am 10:53 Sunny 99 37.2 36 2.2 11 11 SSE 8 13 29.75 1008 10 16.0934 0 0
11:53 am 11:53 Sunny 103 39.4 37 2.8 10 10 ESE 14 22 30 1016 10 16.0934 0 0
12:53 pm 12:53 Sunny 104 40 36 2.2 9 9 ESE 14 22 30.07 1018 10 16.0934 0 0
1:53 pm 13:53 Sunny 106 41.1 35 1.7 9 9 SE 13 20 30.08 1019 10 16.0934 0 0
2:53 pm 14:53 Sunny 106 41.1 35 1.7 9 9 ESE 18 30 30.09 1019 10 16.0934 0 0
3:53 pm 15:53 Sunny 106 41.1 34 1.1 8 8 ESE 21 33 30.09 1019 10 16.0934 0 0
4:48 pm 16:48 Sunny 108 42 34 1 8 8 SSW 15 24 29.89 1012 10 16.0934 0 0
4:53 pm 16:53 Sunny 107 41.7 32 0 7 7 SSW 10 17 30.09 1019 10 16.0934 0 0
5:53 pm 17:53 Sunny 106 41.1 31 -0.6 7 7 SSW 16 26 30.1 1019 10 16.0934 0 0
6:53 pm 18:53 Sunny 104 40 31 -0.6 8 8 SSW 15 24 30.09 1019 10 16.0934 0 0
7:53 pm 19:53 Sunny 103 39.4 31 -0.6 8 8 W 15 24 30.09 1019 10 16.0934 0 0
8:53 pm 20:53 Clear 101 38.3 31 -0.6 8 8 WSW 7 11 30.09 1019 10 16.0934 0 0
9:53 pm 21:53 Clear 96 35.6 37 2.8 13 13 NW 24 39 30.09 1019 10 16.0934 0 0
10:10 pm 22:10 Clear 93 33.9 45 7.2 19 19 NW 32 52 29.95 1014 10 16.0934 0 0
10:53 pm 22:53 Clear 91 32.8 46 7.8 21 21 NW 30 48 30.08 1019 10 16.0934 0 0
11:53 pm 23:53 Clear 90 32.2 44 6.7 20 20 NW 26 43 30.07 1018 10 16.0934 0 0

Powered by AerisWeather